This is the latest recevied weather packets stored in our database for station/object W8KVG. If no packets are shown the sender has not sent any weather packets the latest 10 day(s).
| Time | Temp. | Humidity | Pressure | Rain* | Wind** | Luminosity | Snow |
|---|---|---|---|---|---|---|---|
| 1777895123 | 11.11° C | 62% | 1009.6 hPa | 0 mm | - | 48 W/m² | - |
| 1777894820 | 11.11° C | 64% | 1009.7 hPa | 0 mm | - | 32 W/m² | - |
| 1777894516 | 11.11° C | 64% | 1009.5 hPa | 0 mm | - | 25 W/m² | - |
| 1777894214 | 10.56° C | 63% | 1009.9 hPa | 0 mm | - | 24 W/m² | - |
| 1777893910 | 10.56° C | 63% | 1009.9 hPa | 0 mm | - | 23 W/m² | - |
| 1777893607 | 10° C | 65% | 1009.6 hPa | 0 mm | - | 21 W/m² | - |
| 1777893303 | 10° C | 65% | 1009.6 hPa | 0 mm | - | 19 W/m² | - |
| 1777892999 | 9.44° C | 66% | 1009.6 hPa | 0 mm | - | 15 W/m² | - |
| 1777892691 | 9.44° C | 66% | 1009.6 hPa | 0 mm | - | 14 W/m² | - |
| 1777892387 | 9.44° C | 65% | 1009.7 hPa | 0 mm | - | 12 W/m² | - |
| 1777892082 | 9.44° C | 65% | 1009.9 hPa | 0 mm | - | 11 W/m² | - |
| 1777891780 | 9.44° C | 65% | 1009.9 hPa | 0 mm | - | 9 W/m² | - |
| 1777891477 | 9.44° C | 64% | 1009.9 hPa | 0 mm | - | 8 W/m² | - |
| 1777891172 | 10° C | 65% | 1010 hPa | 0 mm | - | 7 W/m² | - |
| 1777890866 | 9.44° C | 65% | 1009.7 hPa | 0 mm | - | 5 W/m² | - |
| 1777890563 | 10° C | 64% | 1009.9 hPa | 0 mm | - | 4 W/m² | - |
| 1777890259 | 10° C | 64% | 1010 hPa | 0 mm | - | 3 W/m² | - |
| 1777889955 | 10° C | 65% | 1009.9 hPa | 0 mm | - | 2 W/m² | - |
| 1777889653 | 10° C | 63% | 1009.9 hPa | 0 mm | - | 1 W/m² | - |
| 1777889349 | 9.44° C | 64% | 1009.9 hPa | 0 mm | - | 0 W/m² | - |
| 1777889047 | 9.44° C | 63% | 1009.9 hPa | 0 mm | - | 0 W/m² | - |
| 1777888744 | 9.44° C | 63% | 1010.2 hPa | 0 mm | - | 0 W/m² | - |
| 1777888440 | 8.89° C | 65% | 1010.3 hPa | 0 mm | - | 0 W/m² | - |
| 1777888130 | 8.89° C | 65% | 1010.1 hPa | 0 mm | - | 0 W/m² | - |
| 1777887829 | 8.89° C | 65% | 1010 hPa | 0 mm | - | 0 W/m² | - |
* Rain latest hour (hover to see other rain measurements)
** Current wind speed in m/s (hover to see current wind gust speed)